Showing default

LEMUR 2 THENICKMOLO, 43185

Orbit data source: Space-Track

LEMUR 2 THENICKMOLO, 43185 is a payload satellite owned by Spire (US) in SSO that was launched on Thu, 01 Feb 2018 UTC via a SOYUZ-2-1A launch vehicle from the Vostochny Cosmodrome (VOSTO). Payload-class satellites include a variety of spacecraft equipped with specific instruments for various scientific and technological missions. These include communications satellites like Starlink; space stations such as the ISS; scientific satellites like the Hubble; Earth observation satellites from companies like Planet Labs, Umbra, and HawkEye 360; GPS; miniature CubeSats for education and research; and military/defense satellites.

Loading next visibility...
Identifier
43185, 2018-014F
Orbit
SSO
Last TLE update
12 hours ago
Origin
Manufacturer
Spire/Glasgow
Mission
Operational Commercial Com/MetRO
Bus & Motor
CUBESAT 3U, Unknown motor
Mass
4.6 kg wet, 4.6 kg dry
Launch date (UTC)
2018-02-01 (7 years ago)
Launch vehicle
SOYUZ-2-1A
Launch site
Vostochny Cosmodrome (VOSTO)
Object type
Payload
Rocket body
Debris
Shape & HBR
Box + 2 Pan, 0.7 m
Radar Cross Section
0.124 m², Small (<0.1 m²)

Expand to show TLE details & history

TLE from 12 hours ago
0 LEMUR 2 THENICKMOLO
1 43185U 18014F   25187.32800359  .00093639  00000-0  11438-2 0  9997
2 43185  97.5624 106.2013 0005876  83.7754 276.4171 15.60108526407653
Epoch: 2025-07-06T07:52Z
TLE epoch observation values (Epoch: 2025-07-06T07:52:19.51Z)
Latitude
-0.00006°
Longitude
63.56674°
Altitude
390.041 km
Speed
7.676 km/s
True Right ascension
07h 04m 48s
True Declination
0° 00' 00"
Sunlit
Object was in daylight at epoch
Visualization orbit readout
Latitude
-43.19009°
Longitude
71.22405°
Altitude
406.077 km
Speed
7.664 km/s
Apparent Right ascension
02h 11m 32s
Apparent Declination
-86° 32' 21"
Sunlit
Object is in daylight
Visualization observer readout
Local Sidereal Time
07:59:46
Azimuth
184.491° SSW
Elevation
-39.651°
Doppler factor
1
Orbital elements
Apogee altitude
388.236 km
Perigee altitude
380.289 km
Semi-major axis
6,762.4 km
Eccentricity
0.00059
Inclination
97.5624°
RAAN
106.2013°
Arg. of periapsis
83.7754°
True anomaly
Unknown
Mean anomaly
276.4171°
Eccentric anomaly
Unknown
Mean motion
3.90294 °/min
Orbital period
92.24 mins
BSTAR
0.0011438
Loading maneuver chart data...
Loading SW <> Apogee altitude chart data...
Loading historical data...
Loading historical data...
Loading historical data...
Loading historical data...
Loading historical data...
Loading historical data...
Loading historical data...

LEMUR 2 THENICKMOLO Visibility forecast

Observer location: undefined°, undefined°

Span
Click to sort rows by Start time (UTC) header in descending order
Start Az.
Max El. time (UTC)
Max El. Az.
Max El.
End time (UTC)
End Az.
5 mins2025-07-07 07:31:02.081Z11.616° NNE2025-07-07 07:33:02.081Z8.461° NNE41.961°2025-07-07 07:36:02.081Z193.747° SSW
|